Temperature
15 13 14 14 15 16 18 18 18 18 19 20 19 19 18 19 20 20 21 21 22 22 23 22 22 22 22 22 22 22 22 22 21 21 20 20 19 19 18 18 18 18 17 17
14 15 15 16 16 17 17 18 18 18 19 20 19 18 17 17 17 18 19 20 21 21 21 22 22 22 22 22 22 22 22 21 21 21 20 20 19 19 18 18 18 18 17 17
16 16 17 17 17 17 17 17 18 19 18 19 19 18 17 17 16 16 17 18 19 19 20 20 21 21 22 21 21 22 21 21 21 21 20 19 19 18 18 18 17 17 17 17
16 16 17 17 17 17 16 18 18 19 18 17 19 17 17 16 16 16 15 15 16 17 17 18 19 19 20 20 21 21 21 21 20 20 20 20 19 19 18 18 17 16 16 16
16 17 17 17 17 17 17 18 18 18 18 17 17 17 16 16 16 16 15 15 15 15 16 16 17 17 18 19 19 20 20 19 19 19 19 19 19 18 18 17 16 16 15 15
16 17 17 17 18 18 18 18 17 15 15 17 17 16 16 16 16 16 15 14 14 14 15 15 16 17 17 18 18 19 19 18 18 18 18 18 18 18 17 16 16 15 14 14
16 17 17 18 19 18 17 16 15 16 15 16 16 16 16 16 15 15 14 13 14 14 14 15 15 16 16 17 17 17 17 17 17 17 17 17 17 17 16 16 15 14 14 13
16 16 17 18 18 17 16 16 15 16 16 15 16 16 15 15 14 14 13 13 13 13 14 14 14 14 15 15 16 16 16 16 16 16 16 16 16 15 15 15 14 13 13 13
15 16 17 18 18 17 16 15 15 14 16 15 15 16 15 15 14 13 13 12 12 13 13 13 13 14 14 14 15 15 15 15 15 15 15 15 14 14 14 13 13 13 12 12
15 16 16 17 17 16 16 14 13 14 15 15 15 15 15 15 14 13 12 12 12 12 12 13 13 13 13 13 14 14 14 14 14 14 14 14 13 13 13 13 12 12 11 10
15 15 15 16 15 15 16 15 13 12 13 14 14 14 15 14 14 13 12 11 11 11 11 12 12 12 12 13 13 13 13 13 13 13 12 12 12 12 12 11 10 10 9 9
14 13 14 16 16 15 15 14 13 14 13 13 13 14 13 13 13 12 11 11 11 11 11 11 11 11 11 11 12 12 12 11 11 11 11 11 11 10 10 9 9 8 8 8
14 13 14 15 15 14 14 14 13 11 11 12 13 13 13 12 12 11 11 10 10 11 10 10 10 10 10 10 10 10 10 10 10 10 10 10 9 9 8 8 8 7 7 7
13 12 13 14 14 14 14 14 13 13 12 12 13 13 12 12 11 11 10 10 10 10 10 10 9 9 9 9 9 9 9 9 9 9 9 8 8 8 7 7 7 6 6 6
12 12 13 13 14 14 13 13 13 13 12 12 13 13 12 12 11 10 9 9 9 9 9 8 8 8 8 8 8 8 8 8 8 8 7 7 7 7 6 6 6 6 5 5
11 12 13 13 13 13 13 13 13 13 12 12 12 12 11 10 10 9 9 9 8 8 8 8 8 7 7 7 7 7 7 7 7 7 6 6 6 6 6 5 5 5 4 4
10 11 12 12 13 13 11 11 12 11 11 12 12 11 11 10 9 9 8 8 8 8 7 7 7 7 7 7 7 6 6 6 6 6 6 5 5 5 5 4 4 4 4 3
10 9 9 11 13 12 12 12 12 11 11 10 10 10 9 9 8 8 8 8 7 7 7 7 7 6 6 6 6 6 6 6 5 5 5 5 4 4 4 4 4 3 3 3
10 10 9 9 11 11 12 12 12 11 10 10 10 9 8 8 8 7 7 7 7 7 7 6 6 6 6 6 6 5 5 5 5 4 4 4 4 4 4 3 3 3 3 2
10 9 9 9 11 11 12 12 12 11 10 10 9 8 8 8 8 7 7 7 6 6 6 6 6 6 5 5 5 5 5 4 4 4 4 4 4 3 3 3 3 3 3 2
11 9 9 9 10 11 11 11 12 11 10 9 9 8 8 8 7 7 6 6 6 6 6 6 5 5 5 5 5 5 4 4 4 4 4 4 3 3 3 3 3 3 3 2
11 10 9 9 10 11 11 11 10 9 9 9 9 8 7 7 6 6 6 6 6 6 5 5 5 5 5 4 5 4 4 4 4 4 3 3 3 3 3 3 3 3 3 2
9 9 8 8 9 9 9 10 10 10 9 9 9 8 7 6 6 6 6 6 6 5 5 5 5 5 4 4 4 4 4 4 4 4 4 3 3 3 3 3 3 3 3 2
10 8 8 8 9 9 10 10 10 10 10 9 9 8 7 6 6 6 6 6 5 5 5 5 5 5 4 4 4 4 4 4 4 4 4 4 3 3 3 3 3 3 3 2
10 9 8 8 9 9 10 10 10 10 10 9 8 8 7 7 6 6 6 5 5 5 5 5 5 5 4 4 4 4 4 4 4 4 4 4 4 4 4 3 3 3 3 2
9 8 9 9 10 9 10 10 10 10 9 9 8 7 7 7 6 6 6 5 5 5 5 5 5 5 4 4 4 4 4 4 4 4 4 4 4 4 4 4 3 3 3 2
Wind_Speed
4 5 4 8 9 6 2 2 5 7 5 3 4 5 7 4 3 6 7 8 10 11 7 6 7 9 10 10 11 13 14 12 10 8 8 6 6 4 3 3 7 9 10 11
5 3 8 6 4 4 3 4 6 7 4 2 4 5 6 6 3 0 3 4 5 4 3 3 4 5 8 10 10 10 12 13 12 10 7 4 4 3 3 2 3 6 8 9
6 6 3 5 3 3 4 4 5 6 7 5 3 6 7 7 8 10 8 7 5 3 2 2 2 2 2 4 7 8 10 11 11 10 7 6 5 4 3 4 3 4 8 9
5 6 4 4 4 5 5 7 7 4 3 5 3 2 5 6 10 11 11 11 11 9 8 7 6 5 3 1 1 4 7 9 9 10 10 10 8 6 5 4 4 5 8 9
5 4 5 6 8 9 8 5 3 3 2 2 2 3 3 4 6 9 11 12 12 11 11 11 10 7 5 4 3 2 5 7 8 9 10 9 6 5 5 6 7 6 6 7
7 4 6 8 6 7 5 4 5 5 4 1 3 4 2 4 4 6 10 11 12 12 12 12 11 10 9 7 6 5 5 6 7 8 9 9 10 9 9 7 7 6 5 5
5 5 4 4 1 1 5 5 4 3 3 3 2 5 3 6 7 8 9 10 11 12 12 13 13 12 11 10 8 6 6 6 6 8 8 8 8 9 10 8 7 7 6 5
2 6 3 3 6 6 6 9 7 5 4 2 4 4 4 7 9 10 10 10 12 13 13 13 13 12 12 11 10 8 8 8 8 8 8 8 8 7 7 8 8 8 7 7
2 5 5 2 2 7 6 5 7 6 3 3 3 4 4 7 9 9 9 10 11 11 12 12 12 12 12 12 12 11 11 11 11 11 11 10 10 10 11 11 11 10 9 9
4 4 6 4 6 6 4 7 6 6 5 2 2 2 1 5 7 7 7 7 8 9 11 11 12 12 12 12 13 13 13 13 13 13 11 11 12 13 13 13 13 12 11 11
2 1 5 5 5 2 4 5 6 5 5 6 4 0 3 5 8 8 7 6 7 9 10 10 11 11 12 13 14 14 14 15 14 14 14 15 14 14 14 14 14 13 12 12
2 3 2 3 3 1 4 4 5 5 3 4 5 2 3 7 9 9 8 7 7 8 9 11 11 12 13 13 14 14 14 14 14 14 15 16 16 16 16 15 14 14 14 13
3 4 3 5 6 7 6 4 4 6 6 5 6 4 4 9 9 8 8 7 7 8 10 11 12 12 13 13 13 13 14 14 13 14 16 16 16 16 15 15 14 14 14 13
4 5 4 4 3 1 5 6 3 4 4 5 5 8 7 8 8 7 7 7 7 8 9 11 11 12 12 12 12 13 14 13 14 14 15 16 15 15 14 14 14 13 12 13
5 5 5 6 5 6 7 8 7 6 4 5 7 7 7 7 7 7 8 8 9 10 11 12 12 11 12 12 12 12 13 12 13 14 14 14 13 13 13 13 13 12 11 11
5 5 4 5 6 9 10 11 8 7 6 7 9 5 4 7 8 8 8 9 10 10 11 12 12 11 11 11 11 11 12 11 12 13 13 12 12 12 12 11 11 11 10 8
3 4 3 1 3 4 7 7 6 5 5 1 3 5 8 8 8 7 8 9 10 11 11 11 10 10 10 9 10 10 10 10 11 12 12 11 10 10 9 9 9 9 7 6
5 4 4 3 3 3 1 2 4 6 6 6 8 8 9 10 9 8 8 9 11 11 11 10 9 9 9 9 9 9 9 10 10 10 9 9 9 9 8 8 7 6 5 4
4 6 5 4 3 1 1 1 1 2 3 4 8 11 11 12 10 9 9 10 10 10 9 9 9 8 8 8 8 9 9 9 9 8 7 7 7 7 7 7 5 3 3 2
7 6 5 4 4 3 3 4 1 4 2 3 7 10 9 6 5 4 7 10 10 9 9 9 9 9 8 7 7 9 8 8 7 6 6 6 6 6 6 5 3 2 2 2
5 6 5 4 2 2 3 5 1 1 3 5 7 8 6 3 5 9 10 10 9 9 9 9 9 8 6 6 7 8 7 6 4 5 6 6 5 5 5 4 3 3 3 3
3 3 2 3 2 3 5 3 3 3 3 6 7 7 10 11 13 11 10 10 9 9 9 8 8 7 5 5 7 8 5 3 4 5 5 4 4 3 3 4 3 3 3 3
3 4 5 5 4 3 3 2 3 4 6 5 7 10 14 14 12 11 10 9 8 8 7 7 8 7 5 5 6 6 3 3 5 5 3 2 3 3 2 2 2 2 2 1
2 3 4 3 1 2 3 4 4 5 6 8 10 12 13 13 12 11 9 8 7 7 7 6 7 6 4 3 4 3 2 3 4 3 2 1 1 1 1 1 1 1 1 0
4 4 4 2 2 4 3 4 6 8 11 12 11 10 11 13 12 10 9 8 7 6 5 5 6 5 3 2 1 1 1 3 3 2 1 0 0 1 0 0 0 1 1 2
3 5 6 6 7 6 5 6 7 10 10 12 13 10 9 10 10 9 8 6 6 6 5 5 4 3 2 1 1 1 1 3 3 1 1 1 1 1 1 1 1 3 2 1
Wind_Direction
110 104 190 211 198 204 223 283 293 277 279 302 287 290 302 307 213 219 210 201 202 205 202 185 182 181 180 183 186 184 182 176 171 176 181 183 184 176 175 172 180 178 173 174
64 232 225 207 188 200 232 283 293 296 314 280 303 333 349 23 18 298 198 203 205 191 172 172 171 171 184 187 188 188 184 178 180 185 178 167 144 145 145 137 141 151 155 158
185 234 200 164 190 206 240 227 253 281 331 357 14 360 18 27 40 44 49 49 50 82 82 71 89 146 168 179 191 190 186 186 183 167 142 122 113 116 138 145 131 116 129 137
223 246 197 194 219 183 258 235 226 265 345 313 37 1 357 22 46 46 44 45 43 41 46 43 38 31 22 347 190 179 179 180 174 165 164 165 177 178 167 146 133 119 118 122
237 218 192 213 224 184 221 237 220 252 204 297 348 127 324 14 46 47 47 46 44 43 47 45 39 34 32 28 42 120 150 158 162 164 167 168 161 145 130 127 125 112 102 107
241 232 205 215 228 196 199 63 45 47 83 315 285 133 16 16 35 56 51 46 43 43 45 44 40 38 37 39 47 66 110 130 145 148 152 159 156 146 139 140 136 123 109 95
307 290 242 199 241 105 120 100 34 10 33 248 342 95 75 49 60 70 63 51 43 42 44 43 38 37 36 39 45 60 90 100 111 122 129 137 140 140 143 143 131 122 109 95
307 303 279 194 189 186 171 146 159 185 199 266 29 92 89 77 76 75 68 59 50 44 43 44 39 37 37 39 45 59 76 80 86 96 98 101 106 111 112 109 111 108 102 97
215 280 302 282 210 147 141 171 163 132 141 85 74 104 112 100 82 71 62 54 50 47 46 45 43 42 41 42 43 53 68 71 72 81 86 86 88 95 99 97 96 96 97 97
184 271 312 321 49 34 125 135 101 114 136 131 88 99 99 139 116 95 75 60 52 49 47 45 45 45 45 46 47 51 60 67 69 73 79 84 86 89 92 93 93 92 90 90
143 162 335 25 38 357 56 75 94 99 129 138 139 140 349 155 134 120 97 70 55 53 50 47 46 47 51 52 53 54 57 64 68 72 77 80 79 81 83 84 85 86 84 84
104 106 29 340 312 346 96 107 128 136 142 125 129 130 20 109 111 113 104 87 71 63 58 53 50 49 51 54 57 59 62 66 69 76 80 80 79 79 80 79 79 79 78 76
104 89 61 3 351 8 44 42 82 108 109 128 137 151 100 105 104 105 106 97 84 75 69 65 59 55 54 54 58 63 66 70 71 76 79 79 80 80 80 81 81 80 80 78
104 74 123 166 226 11 34 20 52 97 120 142 156 145 148 132 123 111 101 94 84 79 79 77 72 66 64 62 62 64 65 68 72 74 77 78 78 81 82 83 83 84 84 83
76 69 65 59 57 79 63 39 42 68 123 145 144 140 152 141 131 120 112 106 95 84 79 77 75 72 69 67 65 66 66 67 72 76 77 78 80 82 84 84 84 85 85 88
57 100 79 58 58 72 56 30 31 46 58 98 111 100 98 105 102 103 104 105 99 94 90 87 82 78 74 72 70 69 68 68 73 77 79 79 80 81 82 86 89 89 89 88
58 101 93 97 306 42 31 360 19 40 24 103 137 132 126 108 98 100 106 106 103 100 95 90 83 77 74 72 75 76 75 74 75 78 80 81 83 84 86 94 94 94 92 91
111 94 100 85 53 58 280 8 74 82 52 60 97 104 106 101 89 77 88 104 104 100 96 91 86 81 74 73 74 78 78 79 82 82 83 86 87 89 88 90 92 92 93 96
102 119 99 94 91 84 279 20 20 106 75 77 109 113 110 110 91 69 73 89 95 95 93 89 87 87 85 80 83 86 82 81 84 85 85 86 90 93 91 91 89 86 90 82
51 71 94 97 117 202 259 326 326 111 115 139 132 134 136 130 113 108 96 95 94 92 91 93 91 87 84 81 88 90 87 86 87 90 89 89 93 97 96 94 85 65 67 53
24 35 64 90 110 274 304 316 54 142 227 154 143 140 130 101 115 123 111 99 95 94 94 94 91 87 84 90 94 92 89 88 91 93 90 87 92 100 102 89 69 68 64 54
130 105 108 113 96 267 329 26 125 175 105 110 116 118 115 113 113 113 109 105 102 98 94 95 94 85 78 92 100 95 87 83 90 92 90 87 83 82 97 92 74 63 66 59
131 173 166 164 193 250 338 70 90 121 113 114 120 126 126 124 121 116 111 107 101 100 96 94 99 90 74 82 103 104 100 104 101 94 91 80 67 59 83 103 100 75 69 64
120 127 107 101 109 73 70 74 72 87 107 117 125 128 128 126 124 119 113 108 104 101 99 100 98 94 85 84 94 111 122 123 118 114 106 83 78 49 47 69 122 142 152 147
167 124 104 113 150 108 73 95 105 100 106 110 111 115 124 125 123 120 115 112 110 106 100 102 104 106 109 110 105 130 144 135 130 134 130 98 221 232 201 67 70 209 219 204
191 165 161 202 196 166 167 140 129 123 124 126 122 112 114 121 121 118 116 116 116 113 110 109 111 121 130 141 259 284 191 158 160 192 245 246 250 246 201 155 63 42 53 115
Height
1490 1496 1500 1498 1496 1496 1495 1496 1498 1492 1484 1484 1484 1484 1480 1477 1478 1479 1480 1482 1484 1486 1490 1494 1498 1502 1505 1509 1511 1513 1516 1520 1524 1527 1530 1534 1536 1540 1543 1546 1548 1550 1552 1554
1494 1496 1490 1489 1492 1494 1495 1497 1496 1489 1482 1482 1483 1485 1481 1479 1479 1479 1479 1481 1483 1485 1489 1492 1496 1499 1502 1504 1507 1510 1513 1516 1520 1523 1527 1531 1534 1536 1540 1542 1544 1546 1548 1550
1491 1489 1485 1488 1491 1493 1494 1495 1493 1490 1485 1482 1483 1489 1487 1484 1483 1482 1482 1482 1483 1485 1487 1490 1492 1495 1498 1500 1503 1506 1509 1512 1516 1520 1524 1527 1531 1533 1535 1538 1540 1541 1543 1545
1487 1484 1484 1487 1489 1490 1496 1487 1487 1488 1493 1498 1491 1504 1495 1490 1487 1487 1487 1486 1487 1487 1488 1489 1491 1493 1495 1497 1500 1502 1505 1508 1511 1516 1520 1523 1526 1528 1530 1532 1535 1537 1539 1541
1485 1482 1483 1486 1484 1485 1487 1482 1484 1486 1491 1497 1495 1503 1503 1493 1492 1492 1491 1491 1490 1490 1490 1491 1492 1493 1494 1496 1498 1500 1502 1505 1508 1513 1516 1520 1522 1525 1527 1530 1532 1534 1536 1538
1481 1477 1478 1478 1476 1478 1479 1483 1487 1494 1499 1506 1497 1503 1506 1498 1496 1495 1495 1495 1494 1493 1493 1493 1493 1494 1495 1496 1497 1498 1500 1503 1506 1510 1514 1517 1520 1521 1524 1527 1529 1531 1534 1535
1482 1477 1474 1473 1476 1477 1481 1495 1509 1508 1515 1511 1499 1502 1506 1499 1497 1498 1499 1498 1498 1497 1496 1495 1495 1495 1496 1496 1497 1499 1500 1503 1505 1508 1511 1515 1518 1520 1522 1525 1526 1528 1531 1533
1490 1488 1474 1471 1474 1478 1482 1490 1508 1513 1514 1512 1503 1506 1505 1501 1501 1501 1501 1501 1500 1499 1498 1498 1498 1498 1498 1499 1499 1500 1501 1503 1504 1507 1510 1513 1515 1518 1521 1523 1525 1527 1529 1531
1489 1486 1472 1469 1469 1473 1482 1487 1488 1502 1504 1512 1510 1506 1505 1503 1504 1504 1505 1504 1504 1504 1503 1502 1502 1502 1502 1501 1502 1502 1502 1503 1505 1507 1510 1512 1514 1516 1519 1522 1523 1526 1528 1531
1482 1486 1476 1471 1470 1473 1476 1483 1495 1504 1513 1516 1513 1511 1509 1506 1507 1508 1508 1509 1509 1508 1507 1507 1506 1505 1505 1505 1504 1504 1504 1505 1507 1509 1511 1513 1514 1515 1518 1521 1523 1526 1529 1531
1480 1487 1483 1477 1480 1482 1481 1486 1495 1505 1507 1517 1522 1520 1507 1505 1506 1509 1511 1513 1513 1512 1511 1511 1510 1510 1509 1509 1508 1508 1508 1509 1510 1511 1512 1513 1515 1517 1520 1522 1525 1528 1531 1533
1482 1488 1491 1484 1479 1478 1480 1486 1492 1502 1509 1512 1517 1520 1507 1506 1508 1511 1513 1515 1516 1515 1515 1515 1515 1514 1513 1512 1512 1512 1512 1513 1513 1514 1515 1515 1517 1520 1522 1525 1528 1531 1534 1536
1482 1490 1497 1495 1492 1486 1485 1488 1491 1498 1507 1513 1516 1518 1510 1509 1511 1514 1515 1517 1517 1518 1518 1518 1518 1518 1518 1517 1517 1516 1516 1517 1518 1518 1518 1520 1522 1524 1527 1529 1532 1536 1538 1540
1481 1492 1499 1501 1498 1493 1493 1492 1492 1496 1507 1510 1509 1510 1511 1512 1513 1516 1518 1519 1520 1520 1520 1520 1521 1521 1522 1522 1522 1522 1521 1522 1522 1523 1524 1525 1527 1530 1533 1535 1537 1540 1542 1544
1484 1495 1496 1496 1493 1493 1497 1497 1496 1497 1500 1505 1506 1508 1510 1512 1515 1517 1519 1521 1522 1523 1524 1524 1525 1525 1526 1527 1527 1527 1527 1528 1529 1529 1530 1532 1534 1536 1538 1539 1541 1543 1545 1546
1489 1497 1498 1501 1498 1497 1501 1501 1499 1500 1502 1504 1506 1512 1512 1514 1517 1519 1521 1523 1525 1526 1527 1528 1529 1530 1531 1532 1532 1532 1533 1534 1535 1535 1536 1538 1539 1541 1542 1543 1545 1546 1548 1549
1496 1499 1505 1508 1502 1501 1511 1509 1507 1507 1508 1507 1509 1512 1514 1517 1519 1522 1524 1526 1527 1529 1530 1531 1532 1533 1535 1536 1537 1537 1538 1539 1540 1540 1541 1543 1544 1545 1546 1548 1549 1550 1550 1551
1496 1503 1511 1511 1507 1516 1516 1508 1508 1510 1511 1510 1511 1513 1516 1520 1523 1525 1527 1528 1530 1532 1533 1535 1536 1537 1539 1540 1541 1541 1542 1543 1544 1545 1546 1547 1548 1549 1550 1551 1552 1552 1553 1553
1494 1501 1510 1516 1517 1516 1512 1509 1509 1511 1514 1514 1514 1517 1520 1523 1525 1529 1530 1531 1533 1535 1537 1538 1540 1541 1543 1544 1545 1545 1546 1547 1548 1549 1550 1551 1552 1552 1553 1554 1554 1555 1555 1555
1498 1501 1511 1516 1518 1520 1515 1509 1508 1511 1517 1517 1517 1519 1522 1524 1528 1534 1534 1535 1537 1538 1540 1541 1543 1544 1545 1547 1548 1549 1550 1551 1552 1553 1554 1555 1555 1556 1556 1556 1557 1557 1557 1556
1506 1510 1516 1519 1519 1517 1511 1509 1509 1516 1518 1516 1518 1520 1523 1525 1529 1534 1536 1538 1540 1541 1543 1545 1546 1547 1549 1550 1551 1552 1553 1554 1555 1556 1557 1557 1558 1558 1558 1559 1559 1558 1558 1557
1510 1514 1517 1521 1520 1520 1511 1509 1512 1515 1514 1516 1519 1522 1524 1527 1531 1534 1537 1540 1542 1544 1546 1547 1549 1550 1552 1553 1554 1555 1556 1557 1558 1559 1559 1560 1560 1560 1561 1560 1560 1560 1559 1558
1509 1511 1514 1517 1520 1515 1512 1511 1513 1513 1515 1517 1520 1523 1526 1529 1533 1537 1540 1542 1545 1547 1549 1550 1552 1553 1555 1556 1557 1558 1559 1560 1561 1561 1562 1562 1562 1562 1562 1562 1561 1560 1559 1557
1508 1509 1511 1514 1514 1513 1513 1514 1514 1515 1517 1519 1522 1525 1528 1531 1535 1539 1542 1545 1547 1549 1551 1553 1554 1556 1557 1559 1560 1561 1562 1562 1563 1563 1563 1563 1563 1563 1562 1562 1561 1560 1558 1557
1505 1508 1511 1513 1513 1514 1515 1515 1516 1518 1519 1521 1524 1527 1530 1533 1537 1541 1544 1547 1550 1552 1554 1556 1557 1559 1560 1561 1562 1563 1563 1563 1564 1564 1564 1564 1563 1563 1562 1561 1560 1559 1557 1556
1504 1506 1509 1510 1508 1511 1514 1516 1518 1519 1521 1524 1526 1530 1534 1537 1540 1543 1547 1550 1552 1555 1557 1558 1560 1561 1562 1563 1563 1564 1564 1564 1564 1564 1564 1564 1563 1562 1561 1560 1559 1558 1557 1555